[[{"header":{"parameterUnit":"m.s-1","parameterCategory":2,"la1":30.2992,"la2":30.254,"lo1":-89.0895,"lo2":-89.0443,"dy":0.0025,"dx":0.0025,"nx":19,"ny":19,"refTime":"2026-05-07T21:00:00:Z","depth":"0","parameterNumber":2,"parameterNumberName":"U-component_of_CURRENTS"},"data":[0,0,0,0.2833,0.2833,0.2819,0.2819,0.2921,0.2922,0,0,0,0,0,0,0,0,0,0,0,0.2848,0.2848,0.2833,0.2833,0.2819,0.2819,0.292,0.2922,0,0,0,0,0,0,0,0,0,0,0,0.2848,0.2848,0.2848,0.2833,0.2819,0.2819,0.292,0.29,0,0,0,0,0,0,0,0,0,0,0.2898,0.2889,0.2848,0.2848,0.2833,0.2819,0.2819,0.2898,0.2902,0.2962,0,0.2966,0,0.2947,0.2932,0.2932,0,0,0,0.283,0.2886,0.2889,0.2848,0.2833,0.2819,0.2825,0.2899,0.2903,0.2967,0.2968,0.297,0.2949,0.2933,0.2933,0.3082,0.3083,0,0,0.2831,0.2841,0.2885,0.2892,0.2842,0.2825,0.2824,0.29,0.291,0.2968,0.2972,0.2951,0.2934,0.2935,0.3082,0.3082,0,0,0,0.2835,0.2841,0.2839,0.2889,0.2877,0.2825,0.2824,0.2906,0.2907,0.2973,0.2952,0.2934,0.2936,0.3081,0.3082,0.3109,0,0,0,0.2835,0.2843,0.284,0.2845,0.2875,0.2873,0.2828,0.2902,0.2909,0.2951,0.2934,0.2938,0.3081,0.3082,0.3107,0.3138,0,0,0,0.2846,0.2844,0.2847,0.2845,0.2839,0.2871,0.2875,0.2902,0.2898,0.2932,0.2938,0.308,0.3081,0.3105,0.3134,0.3277,0,0,0,0.2849,0.2853,0.2848,0.2863,0.284,0.2872,0.2874,0.2892,0.292,0.2935,0.3081,0.3082,0.3105,0.3132,0.3273,0.3245,0.3262,0,0,0.2852,0.2854,0.2866,0.2861,0.2883,0.2873,0.2924,0.2948,0.2965,0.3063,0.3065,0.3108,0.3134,0.3276,0.3319,0.3334,0,0,0,0.2867,0.2865,0.2877,0.2891,0.2919,0.2949,0.2965,0.2993,0.3052,0.2987,0.3127,0.3143,0.3232,0.3206,0.3218,0.3132,0.3088,0.3088,0.3088,0.2841,0.2868,0.2883,0.2916,0.2955,0.3007,0.3053,0.31,0.3103,0.3132,0.3178,0.3322,0.329,0.33,0.321,0.3183,0.3183,0.3183,0.3183,0.283,0.2841,0.2884,0.2903,0.2969,0.3027,0.3144,0.3163,0.3301,0.3235,0.3321,0.325,0.3315,0.3214,0.3186,0.3185,0.3185,0.3185,0.3185,0.2805,0.2816,0.2824,0.2877,0.295,0.3042,0.3182,0.3273,0.3344,0.3415,0.3462,0.3461,0.3369,0.3483,0.3484,0.3485,0.3486,0.3486,0.3487,0.2782,0.2793,0.281,0.2866,0.2908,0.3028,0.3233,0.3349,0.3501,0.3522,0.3523,0.3403,0.3415,0.34,0.3498,0.3496,0.3495,0.3494,0.3493,0.2776,0.2782,0.2808,0.2835,0.2932,0.2999,0.3219,0.3442,0.3607,0.3668,0.3544,0.3605,0.3619,0.3607,0.3597,0.3742,0.3742,0.3742,0.3742,0.278,0.2784,0.2808,0.2837,0.2904,0.299,0.3104,0.3311,0.3513,0.3553,0.3598,0.3464,0.3458,0.3455,0.3446,0.3431,0.353,0.353,0.3529,0.28,0.2805,0.2807,0.2814,0.2869,0.2933,0.2956,0.3013,0.3296,0.3512,0.3491,0.35,0.3289,0.3287,0.3263,0.3258,0.3226,0,0]},{"header":{"parameterUnit":"m.s-1","parameterCategory":2,"la1":30.2992,"la2":30.254,"lo1":-89.0895,"lo2":-89.0443,"dy":0.0025,"dx":0.0025,"nx":19,"ny":19,"refTime":"2026-05-07T21:00:00:Z","depth":"0","parameterNumber":3,"parameterNumberName":"V-component_of_CURRENTS"},"data":[0,0,0,0.0462,0.0462,0.0415,0.0415,0.0347,0.0347,0,0,0,0,0,0,0,0,0,0,0,0.0478,0.0478,0.0462,0.0461,0.0415,0.0414,0.0348,0.0347,0,0,0,0,0,0,0,0,0,0,0,0.0478,0.0478,0.0478,0.0461,0.0415,0.0414,0.0348,0.0382,0,0,0,0,0,0,0,0,0,0,0.0427,0.0446,0.0478,0.0478,0.0461,0.0415,0.0414,0.0383,0.038,0.037,0,0.0371,0,0.0362,0.0343,0.0343,0,0,0,0.045,0.0449,0.044,0.0478,0.0461,0.0415,0.0433,0.0381,0.0377,0.0365,0.037,0.0367,0.0361,0.0343,0.0343,0.0387,0.0388,0,0,0.0452,0.0463,0.0443,0.0438,0.0459,0.0434,0.0431,0.0379,0.0377,0.0369,0.0366,0.036,0.0343,0.0342,0.0386,0.0387,0,0,0,0.0468,0.0465,0.0457,0.044,0.0435,0.0433,0.043,0.0379,0.0377,0.0365,0.0359,0.0342,0.0342,0.0385,0.0386,0.0496,0,0,0,0.0469,0.0475,0.0458,0.0463,0.0437,0.0408,0.0431,0.0381,0.0374,0.036,0.0342,0.0341,0.0384,0.0386,0.0491,0.0562,0,0,0,0.0478,0.0476,0.0474,0.0464,0.045,0.0408,0.0403,0.0379,0.0372,0.0343,0.0341,0.0383,0.0386,0.0486,0.0553,0.0654,0,0,0,0.0485,0.0517,0.0475,0.0515,0.045,0.0481,0.0403,0.0403,0.0388,0.0342,0.0384,0.0386,0.0485,0.0548,0.0648,0.0744,0.0779,0,0,0.0538,0.0524,0.0552,0.0514,0.0568,0.0486,0.0542,0.0475,0.0417,0.0396,0.0397,0.0492,0.0553,0.0653,0.0865,0.0897,0,0,0,0.0579,0.0601,0.061,0.0627,0.0621,0.0635,0.0566,0.0537,0.0512,0.0418,0.0504,0.054,0.0599,0.0645,0.067,0.0494,0.0396,0.0396,0.0396,0.0655,0.0665,0.0725,0.0739,0.0757,0.0732,0.0738,0.0689,0.0603,0.0613,0.0637,0.0802,0.0851,0.0871,0.0688,0.0633,0.0633,0.0634,0.0634,0.0759,0.0807,0.0818,0.0878,0.0885,0.0925,0.0905,0.0853,0.0863,0.0755,0.0806,0.0768,0.0906,0.07,0.0641,0.064,0.0639,0.0638,0.0638,0.0815,0.0848,0.0871,0.0964,0.1044,0.1055,0.1171,0.1098,0.0999,0.1032,0.1077,0.1075,0.0889,0.1054,0.1055,0.1056,0.1057,0.1057,0.1058,0.0869,0.0902,0.0981,0.107,0.1151,0.1267,0.1328,0.1364,0.1334,0.1234,0.1234,0.0939,0.093,0.0907,0.107,0.1068,0.1066,0.1065,0.1064,0.0971,0.097,0.1098,0.1177,0.1376,0.1564,0.1618,0.1719,0.17,0.17,0.1251,0.134,0.1322,0.1301,0.1287,0.1539,0.1539,0.1539,0.1539,0.1034,0.1045,0.1217,0.1366,0.1559,0.1707,0.1984,0.2029,0.1731,0.1514,0.1343,0.1222,0.121,0.1175,0.1156,0.1135,0.1342,0.1341,0.134,0.1117,0.1156,0.1289,0.142,0.1642,0.1875,0.2154,0.2245,0.1712,0.1305,0.1081,0.109,0.0875,0.0871,0.0779,0.0767,0.0717,0,0]}],[{"header":{"parameterUnit":"m.s-1","parameterCategory":2,"la1":30.2992,"la2":30.254,"lo1":-89.0895,"lo2":-89.0443,"dy":0.0025,"dx":0.0025,"nx":19,"ny":19,"refTime":"2026-05-07T21:00:00:Z","depth":"2","parameterNumber":2,"parameterNumberName":"U-component_of_CURRENTS"},"data":[0,0,0,0.2428,0.243,0.2495,0.2495,0.2589,0.259,0,0,0,0,0,0,0,0,0,0,0,0.2397,0.2397,0.2428,0.243,0.2495,0.2495,0.2589,0.259,0,0,0,0,0,0,0,0,0,0,0,0.2396,0.2397,0.2398,0.243,0.2495,0.2495,0.2589,0.2535,0,0,0,0,0,0,0,0,0,0,0.247,0.2442,0.2397,0.2398,0.2431,0.2495,0.2495,0.2532,0.2539,0.2565,0,0.2576,0,0.2594,0.2598,0.2598,0,0,0,0.2422,0.2437,0.2458,0.2398,0.2431,0.2495,0.2463,0.2536,0.2543,0.2574,0.2578,0.2582,0.2596,0.2598,0.2599,0.2722,0.2723,0,0,0.2418,0.2406,0.2453,0.2462,0.245,0.2461,0.2466,0.254,0.2546,0.2578,0.2584,0.2598,0.2599,0.26,0.2722,0.2722,0,0,0,0.2413,0.2404,0.2423,0.2458,0.2475,0.2463,0.2468,0.2542,0.255,0.2585,0.2599,0.26,0.2601,0.2721,0.2722,0.2754,0,0,0,0.2411,0.2402,0.2421,0.2414,0.2473,0.2509,0.2469,0.2544,0.2554,0.2598,0.26,0.2602,0.2721,0.2722,0.2752,0.2773,0,0,0,0.2393,0.24,0.2409,0.2414,0.2447,0.2508,0.2519,0.2546,0.2563,0.2598,0.2602,0.272,0.2721,0.275,0.2769,0.2892,0,0,0,0.2377,0.2394,0.2408,0.2439,0.2447,0.2508,0.2519,0.2564,0.2594,0.26,0.2721,0.2722,0.2749,0.2767,0.2888,0.2792,0.2802,0,0,0.2389,0.2395,0.2415,0.243,0.2473,0.2498,0.2565,0.2604,0.2624,0.2694,0.2697,0.2753,0.2769,0.2891,0.2866,0.2873,0,0,0,0.2413,0.2417,0.2435,0.2467,0.2516,0.2571,0.2612,0.2644,0.271,0.2651,0.277,0.278,0.2856,0.279,0.2796,0.2728,0.2728,0.2728,0.2728,0.2383,0.2419,0.2447,0.2495,0.254,0.2625,0.268,0.2736,0.2745,0.2784,0.2818,0.2947,0.2874,0.2879,0.2828,0.2829,0.2829,0.2829,0.2829,0.2385,0.2407,0.245,0.2493,0.2567,0.2635,0.2754,0.2789,0.2919,0.2872,0.2946,0.284,0.2887,0.2832,0.2831,0.2831,0.2831,0.283,0.283,0.2358,0.2378,0.2411,0.2473,0.2562,0.2659,0.2786,0.2889,0.296,0.3025,0.3022,0.3019,0.2996,0.3093,0.3094,0.3095,0.3095,0.3096,0.3096,0.2334,0.2366,0.2401,0.2469,0.2514,0.2635,0.2842,0.2937,0.3055,0.3069,0.3069,0.3038,0.303,0.3014,0.3106,0.3104,0.3103,0.3102,0.3101,0.2314,0.2349,0.2366,0.2405,0.2514,0.2565,0.2787,0.2955,0.3102,0.313,0.3112,0.3108,0.3108,0.3099,0.3087,0.3193,0.3193,0.3193,0.3193,0.2307,0.2325,0.235,0.2379,0.2444,0.2538,0.2576,0.2674,0.2876,0.292,0.2931,0.2796,0.2799,0.2773,0.2773,0.275,0.2769,0.2768,0.2767,0.2303,0.2302,0.2293,0.2323,0.2396,0.2441,0.237,0.2287,0.2474,0.2745,0.2807,0.3174,0.2999,0.2995,0.2972,0.2965,0.2936,0,0]},{"header":{"parameterUnit":"m.s-1","parameterCategory":2,"la1":30.2992,"la2":30.254,"lo1":-89.0895,"lo2":-89.0443,"dy":0.0025,"dx":0.0025,"nx":19,"ny":19,"refTime":"2026-05-07T21:00:00:Z","depth":"2","parameterNumber":3,"parameterNumberName":"V-component_of_CURRENTS"},"data":[0,0,0,0.023,0.023,0.0214,0.0213,0.013,0.0129,0,0,0,0,0,0,0,0,0,0,0,0.023,0.023,0.023,0.023,0.0214,0.0213,0.013,0.0129,0,0,0,0,0,0,0,0,0,0,0,0.023,0.023,0.023,0.0231,0.0214,0.0213,0.013,0.0156,0,0,0,0,0,0,0,0,0,0,0.0178,0.0192,0.023,0.023,0.0231,0.0214,0.0213,0.0157,0.0154,0.0124,0,0.0127,0,0.0132,0.0123,0.0123,0,0,0,0.0218,0.0195,0.0193,0.023,0.0231,0.0214,0.0218,0.0156,0.0152,0.0119,0.0126,0.0123,0.0131,0.0123,0.0122,0.0122,0.0122,0,0,0.0219,0.0221,0.0196,0.0191,0.0231,0.0218,0.0217,0.0154,0.0149,0.0125,0.0121,0.013,0.0122,0.0122,0.0121,0.0122,0,0,0,0.023,0.0222,0.0222,0.0194,0.0199,0.0218,0.0217,0.0152,0.0153,0.0121,0.0129,0.0122,0.0121,0.012,0.0121,0.0226,0,0,0,0.023,0.0229,0.0223,0.0223,0.0201,0.0184,0.0216,0.0157,0.0151,0.0129,0.0122,0.012,0.012,0.0121,0.0222,0.0275,0,0,0,0.023,0.0229,0.023,0.0223,0.0222,0.0186,0.0183,0.0156,0.0156,0.0123,0.012,0.0119,0.0121,0.0218,0.0268,0.0339,0,0,0,0.0228,0.0251,0.023,0.0259,0.0223,0.025,0.0184,0.0186,0.0167,0.0121,0.012,0.0121,0.0217,0.0264,0.0334,0.0361,0.0385,0,0,0.0262,0.0255,0.0275,0.0257,0.0301,0.0251,0.0293,0.0232,0.0178,0.0132,0.0132,0.0223,0.0268,0.0338,0.045,0.0471,0,0,0,0.029,0.0307,0.0315,0.0334,0.0337,0.0357,0.0304,0.0279,0.0251,0.0176,0.0225,0.025,0.0291,0.0297,0.0314,0.0129,0.0128,0.0128,0.0128,0.0336,0.0349,0.0395,0.0415,0.0431,0.0424,0.0428,0.0385,0.0315,0.0326,0.0337,0.0465,0.0472,0.0485,0.0333,0.0334,0.0334,0.0334,0.0335,0.0412,0.0446,0.0464,0.0517,0.0533,0.0565,0.0548,0.0514,0.0513,0.0434,0.0469,0.0409,0.051,0.0343,0.0341,0.034,0.0339,0.0339,0.0338,0.0451,0.0472,0.0507,0.0585,0.0659,0.0673,0.0765,0.0713,0.0627,0.0653,0.065,0.0648,0.0534,0.0675,0.0676,0.0676,0.0677,0.0677,0.0677,0.0476,0.0514,0.0588,0.0668,0.0742,0.0845,0.0903,0.0919,0.0867,0.0777,0.0776,0.0579,0.0568,0.0553,0.0686,0.0685,0.0683,0.0683,0.0682,0.0524,0.0547,0.0654,0.0734,0.0919,0.1095,0.1134,0.1179,0.1141,0.1112,0.084,0.0833,0.0803,0.0788,0.0778,0.0961,0.0961,0.0961,0.0961,0.0553,0.0572,0.0731,0.0876,0.1058,0.1216,0.1411,0.1359,0.1183,0.1022,0.1019,0.0942,0.0929,0.09,0.0881,0.087,0.1078,0.1078,0.1078,0.0592,0.0633,0.0752,0.0901,0.1133,0.1356,0.1548,0.1488,0.1188,0.1081,0.1017,0.0973,0.0846,0.0832,0.0769,0.0747,0.0721,0,0]}],[{"header":{"parameterUnit":"m.s-1","parameterCategory":2,"la1":30.2992,"la2":30.254,"lo1":-89.0895,"lo2":-89.0443,"dy":0.0025,"dx":0.0025,"nx":19,"ny":19,"refTime":"2026-05-07T21:00:00:Z","depth":"4","parameterNumber":2,"parameterNumberName":"U-component_of_CURRENTS"},"data":[0,0,0,0.1537,0.1542,0.1735,0.1736,0.1838,0.1838,0,0,0,0,0,0,0,0,0,0,0,0.1469,0.1471,0.1537,0.1542,0.1735,0.1736,0.1838,0.1838,0,0,0,0,0,0,0,0,0,0,0,0.1468,0.147,0.1472,0.1543,0.1735,0.1736,0.1837,0.1726,0,0,0,0,0,0,0,0,0,0,0.1556,0.152,0.147,0.1472,0.1544,0.1735,0.1736,0.1723,0.1733,0.171,0,0.1753,0,0.1799,0.1842,0.1842,0,0,0,0.1537,0.1512,0.1561,0.1472,0.1546,0.1735,0.1647,0.173,0.1741,0.1723,0.1755,0.176,0.18,0.1843,0.1843,0.1942,0.1943,0,0,0.1526,0.1502,0.1554,0.1569,0.161,0.164,0.1653,0.1738,0.1754,0.1756,0.1763,0.1802,0.1843,0.1843,0.1941,0.1942,0,0,0,0.1499,0.1494,0.1545,0.1564,0.1612,0.1646,0.166,0.1751,0.1768,0.1765,0.1803,0.1843,0.1844,0.1941,0.1942,0.1985,0,0,0,0.1492,0.1479,0.154,0.1528,0.1611,0.1705,0.167,0.1762,0.1774,0.1803,0.1843,0.1845,0.194,0.1941,0.1982,0.1979,0,0,0,0.1458,0.1476,0.1502,0.1526,0.1613,0.1705,0.1729,0.1766,0.1796,0.1842,0.1845,0.1939,0.1941,0.198,0.1976,0.2039,0,0,0,0.1419,0.1451,0.1502,0.1551,0.1611,0.1711,0.1729,0.1813,0.1857,0.1844,0.194,0.1942,0.1979,0.1974,0.2036,0.1783,0,0,0,0.1427,0.1452,0.1477,0.1527,0.1605,0.1683,0.1775,0.1845,0.1868,0.1898,0.1902,0.1983,0.1975,0.2038,0.1875,0,0,0,0,0.1457,0.148,0.1512,0.1578,0.1658,0.175,0.1836,0.1883,0.1966,0.1905,0.2002,0.1996,0.2034,0.188,0.1949,0.1949,0.1949,0.1948,0.1948,0.1429,0.1476,0.1522,0.1598,0.1671,0.1806,0.1883,0.1963,0.1986,0.2043,0.2046,0.2139,0.1979,0.2075,0.2075,0.2075,0.2076,0.2076,0.2076,0.1425,0.1439,0.1526,0.159,0.1694,0.1792,0.1937,0.1998,0.2118,0.2107,0.2144,0.1953,0.2081,0.208,0.2079,0.2078,0.2078,0.2078,0.2077,0.1383,0.139,0.1458,0.1553,0.1665,0.18,0.1908,0.2037,0.2141,0.2192,0.2063,0.2177,0.2158,0.224,0.224,0.224,0.2241,0.2241,0.2241,0.1293,0.1355,0.1394,0.1511,0.1578,0.171,0.1912,0.1992,0.2133,0.2076,0.2223,0.2195,0.2189,0.2168,0.2245,0.2245,0.2244,0.2244,0.2243,0.1212,0.124,0.1282,0.134,0.1479,0.1557,0.1778,0.1898,0.1979,0.1991,0.202,0.203,0.1992,0.1992,0.1961,0.1981,0.1978,0.1975,0,0.1126,0.115,0.1159,0.12,0.1277,0.1439,0.1503,0.1645,0.1788,0.1729,0.1972,0.1999,0.2006,0.1956,0.1952,0.1911,0,0,0,0.1057,0.1063,0.103,0.1081,0.1151,0.131,0.1509,0.1506,0.1774,0.1779,0.19,0.192,0.2092,0.2259,0.2225,0.2218,0.2182,0,0]},{"header":{"parameterUnit":"m.s-1","parameterCategory":2,"la1":30.2992,"la2":30.254,"lo1":-89.0895,"lo2":-89.0443,"dy":0.0025,"dx":0.0025,"nx":19,"ny":19,"refTime":"2026-05-07T21:00:00:Z","depth":"4","parameterNumber":3,"parameterNumberName":"V-component_of_CURRENTS"},"data":[0,0,0,0.0127,0.0127,0.0119,0.0118,0.0042,0.0042,0,0,0,0,0,0,0,0,0,0,0,0.0126,0.0126,0.0127,0.0127,0.0119,0.0118,0.0043,0.0042,0,0,0,0,0,0,0,0,0,0,0,0.0126,0.0126,0.0126,0.0127,0.0119,0.0118,0.0043,0.0063,0,0,0,0,0,0,0,0,0,0,0.0079,0.0091,0.0126,0.0126,0.0127,0.0119,0.0118,0.0065,0.0062,0.0031,0,0.0034,0,0.004,0.0036,0.0036,0,0,0,0.0118,0.0094,0.0093,0.0126,0.0127,0.0119,0.012,0.0064,0.006,0.0026,0.0033,0.0031,0.0039,0.0035,0.0035,0.0005,0.0006,0,0,0.0119,0.012,0.0095,0.0091,0.0129,0.012,0.012,0.0062,0.0058,0.0033,0.0029,0.0038,0.0035,0.0034,0.0005,0.0006,0,0,0,0.0126,0.012,0.0121,0.0093,0.0099,0.012,0.012,0.0061,0.0062,0.0029,0.0037,0.0034,0.0033,0.0005,0.0005,0.0082,0,0,0,0.0126,0.0125,0.0122,0.0121,0.0101,0.009,0.0119,0.0066,0.006,0.0037,0.0034,0.0032,0.0004,0.0005,0.008,0.0119,0,0,0,0.0125,0.0125,0.0126,0.0122,0.0123,0.0091,0.0089,0.0065,0.0064,0.0036,0.0032,0.0004,0.0005,0.0077,0.0114,0.0137,0,0,0,0.0124,0.0132,0.0126,0.0138,0.0123,0.0134,0.0089,0.0087,0.0069,0.0034,0.0005,0.0005,0.0076,0.0111,0.0134,0.0154,0,0,0,0.0135,0.0133,0.0142,0.0137,0.0161,0.0134,0.0153,0.0109,0.0067,0.0016,0.0016,0.0081,0.0113,0.0136,0.0198,0,0,0,0,0.0146,0.0156,0.0161,0.0173,0.0174,0.019,0.0153,0.0134,0.0106,0.0061,0.0074,0.0093,0.0104,0.0108,0.0009,0.0009,0.0009,0.0009,0.0009,0.0162,0.0172,0.0198,0.0214,0.0224,0.0223,0.0225,0.0192,0.0142,0.0147,0.0151,0.0215,0.0222,0.0141,0.0141,0.0142,0.0142,0.0142,0.0142,0.0195,0.0211,0.0236,0.0266,0.0284,0.0303,0.0291,0.027,0.0258,0.0213,0.022,0.0184,0.015,0.0148,0.0147,0.0146,0.0146,0.0145,0.0145,0.0206,0.0216,0.0243,0.03,0.0352,0.0368,0.0421,0.0388,0.0332,0.0346,0.0328,0.0263,0.0261,0.0346,0.0346,0.0347,0.0347,0.0347,0.0347,0.0199,0.023,0.0276,0.0339,0.0399,0.0471,0.0498,0.0497,0.0444,0.0421,0.0369,0.0284,0.0277,0.0272,0.0352,0.0351,0.035,0.035,0.035,0.0202,0.0219,0.0299,0.036,0.0501,0.0567,0.0592,0.0581,0.0576,0.0541,0.0447,0.0441,0.0412,0.0402,0.0399,0.0521,0.0521,0.0522,0,0.0198,0.021,0.0329,0.0442,0.057,0.0626,0.0671,0.0663,0.058,0.0575,0.0553,0.0448,0.0442,0.0408,0.04,0.0397,0,0,0,0.0203,0.0243,0.0332,0.0451,0.0607,0.0665,0.0689,0.0675,0.0599,0.0591,0.0536,0.0533,0.0441,0.0365,0.0305,0.0297,0.0285,0,0]}]]